"Pseudo-MPEC" for P22jOCe

Created 2026 Jan 17 1:35:22 UT using Find_Orb

Click here for an explanation of pseudo-MPECs

 
 Astrometry: 
     P22jOCe* C2026 01 07.28834803 32 20.158+00 36 37.28   ~179o 21.69wXNEOCPF52
     P22jOCe  C2026 01 07.30140903 32 14.046+00 36 02.36   ~179o 21.44wXNEOCPF52
     P22jOCe  C2026 01 07.31435603 32 07.914+00 35 28.00   ~179o 21.45wXNEOCPF52
     P22jOCe  C2026 01 07.42574503 31 15.684+00 30 30.38   ~17GZ 21.77GVNEOCPF51
     P22jOCe  C2026 01 07.42656203 31 15.313+00 30 28.39   ~17GZ 21.35GVNEOCPF51

Station data:
(F51) Pan-STARRS 1, Haleakala  (N20.707234 W156.255910)  US/Hawaii.
   Observers J. Herman, T. Lowe, P. Minguez, A. Schultz, I. Smith. Measurers
   K. Chambers, T. de Boer, J. Fairlamb, H. Gao, M. Huber, C.-C. Lin, E.
   Magnier, Y. Ramanjooloo, R. Wainscoat, R. Weryk. 1.8-m Ritchey-Chrétien +
   CCD.
(F52) Pan-STARRS 2, Haleakala  (N20.707382 W156.255910)  US/Hawaii.
   Observers J. Herman, T. Lowe, P. Minguez, A. Schultz, I. Smith. Measurers
   K. Chambers, T. de Boer, J. Fairlamb, H. Gao, M. Huber, C.-C. Lin, E.
   Magnier, Y. Ramanjooloo, R. Wainscoat, R. Weryk. 1.8-m Ritchey-Chrétien +
   CCD.

Orbital elements:  P22jOCe
   Perihelion 2026 Mar 23.985122 +/- 25.7 TT = 23:38:34.5 (JD 2461123.485122)
Epoch 2026 Jan  7.0 TT = JDT 2461047.5   Earth MOID: 0.0777   Me: 0.0698
M 262.642486401 +/- 30              (J2000 ecliptic)             AutoNEOCP
n   1.281270745 +/- 0.39            Peri.  350.083830 +/- 20
a   0.839541384 +/- 0.17            Node   257.032145 +/- 46
e   0.56187481 +/- 0.182            Incl.    8.596062 +/- 35
P   0.769/280.966d         H 23.05  G  0.15   U 12.1  SR
q 0.367824222 +/- 0.243    Q 1.311258545 +/- 0.895
From 5 observations 2026 Jan. 7 (3.3 hr); mean residual 0".22
Residuals in arcseconds: 
260107 F52  .47-  .08-    260107 F52  .12+  .18+    260107 F51  .03+  .08+    
260107 F52  .41+  .07-    260107 F51  .09-  .11-    

Ephemerides (geocentric):
Date (UTC) HH   RA             Dec           delta  r     elong  mag " sig PA
---- --------  ------------   ------------  ------ ------ -----  --- --------
2026 01 17 02  02 28 16.448   -05 31 22.22  .22194 1.0305  95.9 22.4 279' 111
2026 01 17 03  02 28 02.657   -05 32 38.62  .22208 1.0301  95.8 22.4 282' 111
2026 01 17 04  02 27 48.886   -05 33 54.89  .22221 1.0298  95.7 22.4 284' 111
2026 01 17 05  02 27 35.135   -05 35 11.01  .22234 1.0295  95.6 22.4 287' 111
2026 01 17 06  02 27 21.403   -05 36 27.00  .22248 1.0292  95.5 22.4 290' 111
2026 01 17 07  02 27 07.691   -05 37 42.86  .22261 1.0288  95.4 22.4 293' 111
2026 01 17 08  02 26 53.998   -05 38 58.58  .22274 1.0285  95.3 22.4 295' 111
2026 01 17 09  02 26 40.325   -05 40 14.17  .22288 1.0282  95.2 22.4 298' 111
2026 01 17 10  02 26 26.671   -05 41 29.62  .22301 1.0279  95.1 22.4 301' 111
2026 01 17 11  02 26 13.036   -05 42 44.94  .22315 1.0275  95.0 22.4 304' 111
2026 01 17 12  02 25 59.421   -05 44 00.12  .22328 1.0272  94.9 22.4 307' 111
2026 01 17 13  02 25 45.825   -05 45 15.17  .22342 1.0269  94.8 22.4 310' 111
2026 01 17 14  02 25 32.248   -05 46 30.09  .22355 1.0265  94.7 22.4 312' 111
2026 01 17 15  02 25 18.690   -05 47 44.88  .22369 1.0262  94.6 22.4 315' 111
2026 01 17 16  02 25 05.151   -05 48 59.53  .22382 1.0259  94.5 22.4 318' 111
2026 01 17 17  02 24 51.632   -05 50 14.05  .22396 1.0255  94.4 22.4 321' 111
2026 01 17 18  02 24 38.131   -05 51 28.43  .22409 1.0252  94.3 22.4 324' 111
2026 01 17 19  02 24 24.650   -05 52 42.69  .22423 1.0249  94.2 22.4 327' 111
2026 01 17 20  02 24 11.187   -05 53 56.81  .22436 1.0245  94.1 22.4 330' 111
2026 01 17 21  02 23 57.744   -05 55 10.80  .22450 1.0242  94.0 22.4 333' 111
2026 01 17 22  02 23 44.319   -05 56 24.66  .22464 1.0239  93.9 22.4 336' 111
2026 01 17 23  02 23 30.913   -05 57 38.39  .22477 1.0236  93.8 22.4 339' 111
2026 01 18 00  02 23 17.526   -05 58 51.99  .22491 1.0232  93.7 22.4 342' 111
2026 01 18 01  02 23 04.157   -06 00 05.46  .22505 1.0229  93.6 22.4 345' 111
2026 01 18 02  02 22 50.808   -06 01 18.80  .22518 1.0226  93.5 22.4 348' 111
2026 01 18 03  02 22 37.477   -06 02 32.01  .22532 1.0222  93.4 22.4 351' 111
2026 01 18 04  02 22 24.164   -06 03 45.10  .22546 1.0219  93.3 22.5 354' 111
2026 01 18 05  02 22 10.870   -06 04 58.05  .22559 1.0216  93.2 22.5 357' 111
2026 01 18 06  02 21 57.595   -06 06 10.87  .22573 1.0212  93.1 22.5 360' 111
2026 01 18 07  02 21 44.338   -06 07 23.57  .22587 1.0209  93.0 22.5 363' 111
2026 01 18 08  02 21 31.099   -06 08 36.14  .22600 1.0206  92.9 22.5 366' 111
2026 01 18 09  02 21 17.879   -06 09 48.58  .22614 1.0202  92.8 22.5 369' 111
2026 01 18 10  02 21 04.678   -06 11 00.89  .22628 1.0199  92.7 22.5 373' 111
2026 01 18 11  02 20 51.494   -06 12 13.07  .22642 1.0196  92.6 22.5 376' 110
2026 01 18 12  02 20 38.329   -06 13 25.13  .22655 1.0192  92.5 22.5 379' 110
2026 01 18 13  02 20 25.182   -06 14 37.06  .22669 1.0189  92.4 22.5 382' 110
2026 01 18 14  02 20 12.053   -06 15 48.87  .22683 1.0185  92.3 22.5 385' 110
2026 01 18 15  02 19 58.942   -06 17 00.55  .22697 1.0182  92.2 22.5 388' 110
2026 01 18 16  02 19 45.850   -06 18 12.11  .22711 1.0179  92.1 22.5 392' 110
2026 01 18 17  02 19 32.775   -06 19 23.54  .22725 1.0175  92.0 22.5 395' 110
2026 01 18 18  02 19 19.718   -06 20 34.84  .22739 1.0172  91.9 22.5 398' 110
2026 01 18 19  02 19 06.680   -06 21 46.02  .22752 1.0169  91.8 22.5 401' 110
2026 01 18 20  02 18 53.659   -06 22 57.08  .22766 1.0165  91.7 22.5 405' 110
2026 01 18 21  02 18 40.656   -06 24 08.01  .22780 1.0162  91.6 22.5 408' 110
2026 01 18 22  02 18 27.671   -06 25 18.82  .22794 1.0159  91.5 22.5 411' 110
2026 01 18 23  02 18 14.703   -06 26 29.50  .22808 1.0155  91.4 22.5 415' 110
2026 01 19 00  02 18 01.753   -06 27 40.06  .22822 1.0152  91.3 22.5 418' 110
2026 01 19 01  02 17 48.821   -06 28 50.50  .22836 1.0148  91.2 22.5 421' 110